[[{"header":{"parameterUnit":"m.s-1","parameterCategory":2,"la1":30.2991,"la2":30.254,"lo1":-89.0895,"lo2":-89.0444,"dy":0.0017,"dx":0.0017,"nx":28,"ny":28,"refTime":"2024-12-26T03:00:00:Z","depth":"0","parameterNumber":2,"parameterNumberName":"U-component_of_CURRENTS"},"data":[0,0,0,0,0,0,0,0,0,0,0,0,0,0,0,0,0,0,0,0,0,0,0,0,0,0,0,0,0,0,0,0,0,0,0,0,0,0,0,0,0,0,0,0,0,0,0,0,0,0,0,0,0,0,0,0,0,0,0.2626,0.2627,0,0.2635,0.2635,0.2635,0.262,0.2619,0.2619,0.2619,0.2596,0.2596,0.2595,0,0,0,0,0,0,0,0,0,0,0,0,0,0.2592,0.2592,0.2626,0.2627,0.2627,0.2635,0.2635,0.2635,0.262,0.2619,0.2619,0.2619,0.2596,0.2596,0.2595,0,0,0,0,0,0,0,0,0,0,0,0,0,0.2602,0.2593,0.2626,0.2622,0.2622,0.2635,0.2635,0.2635,0.262,0.2619,0.2619,0.2619,0.2596,0.2596,0.2595,0.2601,0,0,0.2594,0.2594,0,0,0,0,0,0,0,0,0.2601,0.2603,0.2622,0.2623,0.2622,0.2628,0.2614,0.2623,0.262,0.2618,0.2619,0.2618,0.2606,0.2604,0.2604,0.26,0.2599,0.2594,0.2593,0.2593,0.2593,0,0,0,0,0,0,0,0.2601,0.2603,0.2627,0.2623,0.2623,0.2618,0.2619,0.2616,0.2612,0.2618,0.2618,0.2623,0.2605,0.2605,0.2603,0.2599,0.2594,0.2593,0.2593,0.2593,0.2632,0.2634,0,0,0,0,0,0,0.2605,0.2602,0.2627,0.2628,0.2613,0.262,0.262,0.2625,0.2613,0.2611,0.2623,0.2622,0.2606,0.2604,0.2602,0.2638,0.2593,0.2593,0.2592,0.2631,0.2633,0.2634,0,0,0,0,0,0,0.2605,0.2608,0.2627,0.2617,0.2619,0.2621,0.2626,0.2625,0.2629,0.2617,0.2614,0.2628,0.2605,0.2603,0.261,0.2636,0.2593,0.2592,0.2629,0.2632,0.2633,0.269,0,0,0,0,0,0,0.2604,0.2607,0.2612,0.2617,0.262,0.2643,0.2626,0.2626,0.2633,0.2632,0.2621,0.2618,0.2605,0.2611,0.261,0.2634,0.2592,0.2628,0.263,0.2633,0.2686,0.2694,0.27,0,0,0,0,0,0.2602,0.261,0.2613,0.2616,0.2627,0.2644,0.2645,0.2643,0.2634,0.2643,0.2636,0.2618,0.2626,0.2612,0.261,0.2635,0.2626,0.263,0.2633,0.2683,0.2692,0.27,0,0,0,0,0,0,0.2595,0.261,0.2612,0.2624,0.2638,0.2643,0.265,0.2649,0.265,0.2647,0.263,0.2628,0.2647,0.2634,0.2618,0.2655,0.2626,0.2629,0.2665,0.2673,0.268,0.2678,0.2591,0,0,0,0,0,0.2599,0.2609,0.2624,0.2634,0.2643,0.2648,0.2654,0.2656,0.2659,0.2659,0.2652,0.2649,0.2658,0.2659,0.2661,0.2676,0.2681,0.2693,0.27,0.2706,0.2704,0.2741,0.2751,0.2644,0.2644,0.2644,0,0,0.2596,0.2608,0.2612,0.2634,0.2642,0.266,0.265,0.2666,0.268,0.2656,0.2669,0.2671,0.2668,0.269,0.2697,0.2681,0.2743,0.271,0.2715,0.271,0.2746,0.2756,0.2765,0.2646,0.2646,0.2645,0,0,0.2599,0.2611,0.2622,0.2641,0.2664,0.2671,0.2679,0.2692,0.2698,0.2714,0.2708,0.2725,0.2725,0.2736,0.274,0.2785,0.2779,0.2789,0.2819,0.2856,0.2865,0.2873,0.2908,0.2919,0.2791,0.2791,0.2791,0,0.2595,0.2611,0.2628,0.265,0.2663,0.2679,0.2694,0.2711,0.2723,0.2735,0.2724,0.2753,0.2749,0.2786,0.2803,0.28,0.2819,0.2787,0.2865,0.2873,0.288,0.2914,0.2925,0.2794,0.2794,0.2793,0.2793,0,0.2608,0.2625,0.2636,0.2666,0.2687,0.2704,0.2732,0.2753,0.276,0.2774,0.281,0.2814,0.283,0.2841,0.2833,0.2889,0.2886,0.2871,0.2843,0.2894,0.2927,0.2938,0.2799,0.2797,0.2797,0.2796,0,0,0.2579,0.2632,0.2634,0.2651,0.2695,0.271,0.275,0.2785,0.2812,0.2833,0.2867,0.2891,0.2898,0.2903,0.2908,0.2938,0.3011,0.2928,0.2929,0.2962,0.31,0.3112,0.3124,0.3012,0.3014,0.3015,0.3108,0,0.2578,0.2615,0.2642,0.2674,0.2694,0.2731,0.2767,0.2807,0.2836,0.2878,0.2905,0.2938,0.2922,0.2939,0.297,0.3002,0.3038,0.2987,0.3046,0.3048,0.3051,0.3136,0.3086,0.3165,0.3118,0.312,0.3121,0,0.2573,0.2601,0.2628,0.2683,0.2695,0.2717,0.2776,0.2811,0.2884,0.2912,0.2956,0.2979,0.3038,0.3011,0.3093,0.3064,0.3085,0.3104,0.3108,0.3103,0.3079,0.3104,0.3185,0.3157,0.3137,0.3135,0.3134,0,0.2534,0.2588,0.2605,0.2623,0.2688,0.2708,0.2745,0.2816,0.285,0.2937,0.2972,0.304,0.308,0.3122,0.3166,0.3137,0.3257,0.3218,0.3249,0.325,0.3209,0.3203,0.3265,0.3274,0.3274,0.3274,0.3274,0,0.2513,0.2527,0.2589,0.2596,0.2621,0.2686,0.2718,0.2775,0.2859,0.2906,0.2982,0.3035,0.3111,0.3183,0.3205,0.3277,0.3291,0.3277,0.3284,0.3229,0.3225,0.3197,0.3163,0.3277,0.3276,0.3276,0.3275,0,0.2456,0.2497,0.2516,0.2581,0.2596,0.2614,0.2682,0.272,0.2813,0.2881,0.2913,0.305,0.3163,0.3237,0.3329,0.3333,0.3325,0.3406,0.3342,0.3341,0.3324,0.3295,0.3205,0.3087,0.3457,0.3458,0.3459,0,0.2426,0.2434,0.248,0.2489,0.2509,0.2545,0.2575,0.2674,0.2725,0.288,0.292,0.3068,0.3166,0.3334,0.3399,0.3481,0.3364,0.3454,0.3381,0.3343,0.3317,0.3154,0.3047,0.3354,0.3354,0.3354,0.3354,0,0.2369,0.2384,0.2402,0.2416,0.2436,0.2456,0.2517,0.2544,0.2675,0.2754,0.2886,0.2986,0.3202,0.3302,0.3439,0.3467,0.3324,0.3454,0.3431,0.3267,0.3075,0.2959,0.3272,0.3353,0.3354,0.3354,0.3354,0.3354,0.232,0.2311,0.2333,0.2336,0.2357,0.2364,0.235,0.2443,0.2505,0.2616,0.2781,0.2916,0.3177,0.3385,0.339,0.3436,0.3327,0.3379,0.3358,0.3203,0.3053,0.3373,0.3449,0.345,0.345,0.3451,0.3451,0,0.2255,0.2254,0.2257,0.2249,0.223,0.2271,0.2306,0.2288,0.2327,0.251,0.2623,0.2901,0.3085,0.3267,0.3454,0.3378,0.3167,0.3301,0.3068,0.2969,0.3302,0.3265,0.3285,0.3285,0.3285,0.3285,0.3285,0.3285,0.2223,0.2193,0.2188,0.2121,0.2114,0.2049,0.204,0.2052,0.2153,0.2293,0.2464,0.2651,0.3075,0.3421,0.3473,0.3372,0.309,0.2991,0.2901,0.3194,0.3198,0.3202,0.3162,0.3159,0.3159,0.2451,0.2447,0.2443]},{"header":{"parameterUnit":"m.s-1","parameterCategory":2,"la1":30.2991,"la2":30.254,"lo1":-89.0895,"lo2":-89.0444,"dy":0.0017,"dx":0.0017,"nx":28,"ny":28,"refTime":"2024-12-26T03:00:00:Z","depth":"0","parameterNumber":3,"parameterNumberName":"V-component_of_CURRENTS"},"data":[0,0,0,0,0,0,0,0,0,0,0,0,0,0,0,0,0,0,0,0,0,0,0,0,0,0,0,0,0,0,0,0,0,0,0,0,0,0,0,0,0,0,0,0,0,0,0,0,0,0,0,0,0,0,0,0,0,0,-0.007,-0.0071,0,-0.0151,-0.0152,-0.0153,-0.0204,-0.0205,-0.0205,-0.0205,-0.0316,-0.0319,-0.0321,0,0,0,0,0,0,0,0,0,0,0,0,0,-0.0009,-0.001,-0.007,-0.0071,-0.0072,-0.0151,-0.0152,-0.0153,-0.0204,-0.0205,-0.0205,-0.0205,-0.0315,-0.0318,-0.0322,0,0,0,0,0,0,0,0,0,0,0,0,0,-0.0058,-0.001,-0.007,-0.0106,-0.011,-0.015,-0.0152,-0.0153,-0.0204,-0.0205,-0.0205,-0.0205,-0.0314,-0.0318,-0.0322,-0.0342,0,0,-0.0335,-0.0337,0,0,0,0,0,0,0,0,-0.0055,-0.0061,-0.01,-0.0104,-0.0108,-0.0167,-0.0171,-0.0218,-0.0204,-0.017,-0.0205,-0.0205,-0.0268,-0.0276,-0.0292,-0.0347,-0.0352,-0.0335,-0.0338,-0.0339,-0.0341,0,0,0,0,0,0,0,-0.0052,-0.0058,-0.0103,-0.0101,-0.0106,-0.0135,-0.0142,-0.018,-0.0218,-0.0173,-0.0177,-0.0183,-0.0271,-0.0287,-0.0295,-0.0353,-0.0335,-0.0339,-0.0341,-0.0343,-0.0427,-0.0427,0,0,0,0,0,0,-0.0037,-0.0054,-0.0101,-0.0106,-0.0081,-0.0135,-0.0143,-0.0149,-0.0217,-0.0227,-0.0183,-0.0186,-0.028,-0.029,-0.0299,-0.0313,-0.0339,-0.0343,-0.0346,-0.0428,-0.0427,-0.0427,0,0,0,0,0,0,-0.0035,-0.004,-0.0098,-0.0081,-0.009,-0.0136,-0.0142,-0.015,-0.0167,-0.0224,-0.0235,-0.019,-0.0281,-0.0293,-0.0326,-0.0318,-0.0345,-0.0349,-0.0428,-0.0428,-0.0427,-0.0349,0,0,0,0,0,0,-0.0033,-0.0039,-0.0037,-0.008,-0.009,-0.0114,-0.0142,-0.0151,-0.017,-0.0174,-0.0234,-0.0245,-0.0282,-0.0319,-0.033,-0.0324,-0.0352,-0.0428,-0.0428,-0.0427,-0.0352,-0.0346,-0.0341,0,0,0,0,0,-0.003,-0.0024,-0.0036,-0.0042,-0.0087,-0.0114,-0.0122,-0.0156,-0.017,-0.0173,-0.0211,-0.0243,-0.0324,-0.0322,-0.0335,-0.033,-0.0428,-0.0428,-0.0427,-0.0355,-0.0347,-0.0341,0,0,0,0,0,0,0.0005,-0.0029,-0.0044,-0.0048,-0.0075,-0.0122,-0.0126,-0.0151,-0.0184,-0.0186,-0.0241,-0.0254,-0.028,-0.0316,-0.0313,-0.0354,-0.0381,-0.0383,-0.0322,-0.0315,-0.031,-0.0287,-0.0356,0,0,0,0,0,0.0015,0.001,-0.0028,-0.003,-0.004,-0.0082,-0.0097,-0.012,-0.0155,-0.017,-0.021,-0.0253,-0.0289,-0.0309,-0.0347,-0.0369,-0.0399,-0.0375,-0.037,-0.0365,-0.0355,-0.0393,-0.039,-0.0425,-0.0425,-0.0425,0,0,0.0028,0.001,0.0006,-0.0023,-0.0046,-0.0052,-0.0092,-0.0108,-0.0112,-0.0177,-0.0193,-0.0236,-0.0291,-0.0314,-0.0329,-0.0342,-0.0369,-0.0364,-0.0359,-0.0352,-0.0392,-0.0389,-0.0385,-0.0425,-0.0425,-0.0425,0,0,0.0057,0.0038,0.0045,0.0026,-0.0001,-0.0026,-0.0027,-0.0068,-0.0086,-0.0109,-0.0154,-0.0187,-0.0245,-0.0278,-0.0304,-0.0292,-0.0339,-0.0308,-0.0263,-0.0299,-0.0296,-0.0294,-0.0319,-0.0319,-0.0305,-0.0305,-0.0305,0,0.0077,0.0078,0.0043,0.0046,0.004,-0.0009,0.0001,-0.0025,-0.007,-0.0079,-0.0103,-0.0178,-0.0226,-0.0252,-0.0249,-0.0278,-0.0304,-0.0281,-0.0291,-0.0289,-0.0289,-0.0314,-0.0316,-0.0301,-0.0301,-0.0302,-0.0302,0,0.0108,0.011,0.0115,0.0105,0.0094,0.0093,0.0058,0.0046,0.0019,-0.001,-0.0042,-0.0106,-0.0149,-0.0172,-0.0209,-0.0226,-0.0247,-0.0278,-0.0302,-0.028,-0.0309,-0.0312,-0.0295,-0.0297,-0.0298,-0.0299,0,0,0.0151,0.0141,0.0143,0.0154,0.0127,0.0125,0.0122,0.0105,0.0111,0.0057,0.0056,-0.0014,-0.0051,-0.0082,-0.0135,-0.017,-0.0188,-0.0215,-0.0219,-0.023,-0.026,-0.0273,-0.0279,-0.0223,-0.0223,-0.0223,-0.0279,0,0.0189,0.0215,0.0196,0.0226,0.0238,0.0203,0.0208,0.0187,0.0158,0.0144,0.0074,0.0049,-0.0016,-0.0033,-0.0079,-0.016,-0.0195,-0.0169,-0.0289,-0.0292,-0.0299,-0.0282,-0.0269,-0.0319,-0.0283,-0.0284,-0.0284,0,0.0228,0.0241,0.0276,0.0295,0.0299,0.0306,0.0313,0.0311,0.0273,0.0249,0.0205,0.0151,0.0094,0.0035,-0.0086,-0.0067,-0.0153,-0.022,-0.0225,-0.0265,-0.0311,-0.0339,-0.0326,-0.0488,-0.0289,-0.0289,-0.0289,0,0.0281,0.0302,0.0336,0.0339,0.0346,0.036,0.0362,0.0342,0.0356,0.0315,0.032,0.0233,0.0201,0.0083,-0.0055,-0.0071,-0.0187,-0.023,-0.0322,-0.0324,-0.035,-0.0353,-0.05,-0.0313,-0.0313,-0.0313,-0.0313,0,0.0329,0.0359,0.0364,0.0382,0.0431,0.0415,0.0456,0.0445,0.0441,0.0471,0.0379,0.0387,0.0211,0.0125,-0.0018,-0.0169,-0.0161,-0.0305,-0.0338,-0.0322,-0.0322,-0.0495,-0.0607,-0.0315,-0.0314,-0.0314,-0.0314,0,0.0377,0.038,0.0424,0.0444,0.0456,0.0489,0.0523,0.0556,0.0539,0.0575,0.0572,0.0504,0.0394,0.0219,0.0033,-0.0107,-0.0367,-0.032,-0.0281,-0.0308,-0.0547,-0.0654,-0.0867,-0.0953,-0.0428,-0.0428,-0.0429,0,0.0403,0.043,0.0472,0.0505,0.0515,0.0556,0.0593,0.0599,0.0642,0.0656,0.069,0.0608,0.0571,0.0298,0.0036,-0.0207,-0.0387,-0.0367,-0.0403,-0.0552,-0.0697,-0.0788,-0.0851,-0.0407,-0.0407,-0.0407,-0.0408,0,0.0455,0.0468,0.0502,0.0566,0.0613,0.0671,0.0725,0.0777,0.0797,0.0838,0.0883,0.0862,0.0614,0.0394,0.0056,-0.0138,-0.0502,-0.038,-0.0552,-0.0704,-0.0796,-0.0896,-0.0374,-0.041,-0.041,-0.0409,-0.0409,-0.0409,0.0494,0.0526,0.057,0.0633,0.0694,0.0775,0.0829,0.0905,0.0991,0.1068,0.1043,0.1058,0.0727,0.0278,-0.0013,-0.051,-0.0539,-0.0652,-0.077,-0.0848,-0.0935,-0.0409,-0.0473,-0.0473,-0.0473,-0.0473,-0.0474,0,0.0537,0.0572,0.0634,0.0708,0.0782,0.0804,0.0914,0.0978,0.1092,0.1194,0.1239,0.1132,0.0693,0.0236,-0.0416,-0.0796,-0.0972,-0.1025,-0.1157,-0.1204,-0.0741,-0.0742,-0.0845,-0.0845,-0.0845,-0.0845,-0.0845,-0.0845,0.0563,0.062,0.0647,0.0765,0.0823,0.092,0.0984,0.1092,0.1192,0.1328,0.1393,0.1419,0.114,-0.0111,-0.0953,-0.118,-0.1479,-0.1562,-0.1709,-0.1393,-0.1367,-0.1342,-0.1368,-0.1601,-0.1602,-0.2107,-0.2113,-0.2117]}],[{"header":{"parameterUnit":"m.s-1","parameterCategory":2,"la1":30.2991,"la2":30.254,"lo1":-89.0895,"lo2":-89.0444,"dy":0.0017,"dx":0.0017,"nx":28,"ny":28,"refTime":"2024-12-26T03:00:00:Z","depth":"2","parameterNumber":2,"parameterNumberName":"U-component_of_CURRENTS"},"data":[0,0,0,0,0,0,0,0,0,0,0,0,0,0,0,0,0,0,0,0,0,0,0,0,0,0,0,0,0,0,0,0,0,0,0,0,0,0,0,0,0,0,0,0,0,0,0,0,0,0,0,0,0,0,0,0,0,0,0.2603,0.2603,0,0.2609,0.2609,0.2609,0.2596,0.2596,0.2596,0.2596,0.2583,0.2583,0.2583,0,0,0,0,0,0,0,0,0,0,0,0,0,0.2566,0.2567,0.2602,0.2603,0.2603,0.2609,0.2609,0.2609,0.2596,0.2596,0.2596,0.2596,0.2583,0.2583,0.2583,0,0,0,0,0,0,0,0,0,0,0,0,0,0.2575,0.2567,0.2602,0.26,0.26,0.2609,0.2609,0.2609,0.2596,0.2596,0.2596,0.2596,0.2583,0.2583,0.2583,0.2585,0,0,0.2582,0.2582,0,0,0,0,0,0,0,0,0.2575,0.2576,0.26,0.26,0.26,0.2604,0.2592,0.2601,0.2596,0.2595,0.2596,0.2596,0.259,0.259,0.2587,0.2585,0.2584,0.2582,0.2581,0.2581,0.2581,0,0,0,0,0,0,0,0.2574,0.2576,0.2602,0.26,0.2601,0.2594,0.2595,0.2593,0.2591,0.2595,0.2595,0.26,0.259,0.2588,0.2587,0.2584,0.2582,0.2581,0.2581,0.2581,0.2629,0.263,0,0,0,0,0,0,0.258,0.2576,0.2602,0.2603,0.259,0.2595,0.2596,0.2601,0.2591,0.2591,0.26,0.2599,0.2588,0.2587,0.2586,0.2627,0.2581,0.2581,0.2581,0.2627,0.2629,0.263,0,0,0,0,0,0,0.258,0.2583,0.2602,0.2592,0.2594,0.2597,0.2602,0.2601,0.2607,0.2596,0.2595,0.2608,0.2588,0.2587,0.2599,0.2625,0.2581,0.2581,0.2625,0.2628,0.263,0.2685,0,0,0,0,0,0,0.2579,0.2582,0.2589,0.2592,0.2595,0.2618,0.2602,0.2601,0.2612,0.2611,0.2603,0.2601,0.2588,0.26,0.2599,0.2624,0.258,0.2624,0.2626,0.2629,0.2681,0.2689,0.2695,0,0,0,0,0,0.2577,0.2586,0.2589,0.2593,0.2603,0.262,0.262,0.2619,0.2613,0.2622,0.2619,0.2602,0.2617,0.2601,0.2599,0.2625,0.2622,0.2626,0.2629,0.2678,0.2687,0.2695,0,0,0,0,0,0,0.2571,0.2586,0.2589,0.2602,0.2616,0.2619,0.2627,0.2627,0.2631,0.263,0.2615,0.2614,0.2636,0.2625,0.2608,0.2648,0.2619,0.2622,0.2657,0.2665,0.2672,0.2669,0.258,0,0,0,0,0,0.2575,0.2586,0.2601,0.2612,0.2622,0.2627,0.2633,0.2636,0.264,0.2641,0.2637,0.2638,0.2648,0.2651,0.2654,0.2672,0.2676,0.269,0.2697,0.2703,0.2701,0.2737,0.2747,0.2641,0.2641,0.2641,0,0,0.2573,0.2586,0.259,0.2612,0.2621,0.2638,0.2629,0.2647,0.2661,0.264,0.2656,0.266,0.2659,0.2683,0.2692,0.2676,0.2739,0.2707,0.2712,0.2707,0.2741,0.2752,0.2761,0.2643,0.2643,0.2642,0,0,0.2578,0.2591,0.2603,0.2621,0.2645,0.2652,0.2661,0.2674,0.2682,0.27,0.2696,0.2716,0.272,0.2731,0.2735,0.2782,0.2775,0.2788,0.2818,0.2854,0.2862,0.287,0.2903,0.2913,0.279,0.279,0.2791,0,0.2576,0.2592,0.2609,0.263,0.2644,0.2661,0.2677,0.2693,0.2708,0.2722,0.2713,0.2745,0.2744,0.2782,0.28,0.2798,0.2816,0.2786,0.2862,0.287,0.2877,0.2909,0.2919,0.2794,0.2793,0.2793,0.2793,0,0.2589,0.2607,0.2618,0.2648,0.2669,0.2687,0.2715,0.2738,0.2748,0.2761,0.2801,0.2807,0.2825,0.2837,0.283,0.2886,0.2883,0.2868,0.284,0.2891,0.2921,0.2931,0.2798,0.2797,0.2796,0.2795,0,0,0.2562,0.2614,0.2617,0.2635,0.2678,0.2694,0.2734,0.2769,0.2797,0.2821,0.2857,0.2884,0.2892,0.2898,0.2904,0.2934,0.3004,0.2925,0.2925,0.2954,0.3089,0.3091,0.3102,0.3006,0.3008,0.3009,0.3096,0,0.2562,0.26,0.2626,0.2659,0.2679,0.2716,0.2752,0.2792,0.2823,0.2866,0.2894,0.2929,0.2915,0.2934,0.2965,0.2996,0.3031,0.2982,0.3037,0.3038,0.3031,0.3113,0.2863,0.2919,0.3105,0.3107,0.3108,0,0.2559,0.2587,0.2615,0.2669,0.2681,0.2705,0.2764,0.28,0.2872,0.2901,0.2946,0.297,0.3029,0.3004,0.3083,0.3056,0.3076,0.3095,0.3098,0.3083,0.3059,0.2896,0.293,0.3124,0.3123,0.3122,0.3121,0,0.2522,0.2575,0.2594,0.2612,0.2676,0.2698,0.2736,0.2806,0.284,0.2927,0.2963,0.303,0.3071,0.3111,0.3153,0.3126,0.3239,0.3203,0.3223,0.3223,0.3012,0.2991,0.3256,0.3256,0.3256,0.3256,0.3256,0,0.2502,0.2517,0.2579,0.2587,0.2614,0.2679,0.2712,0.2769,0.2852,0.2899,0.2975,0.3026,0.31,0.3169,0.3189,0.3253,0.3272,0.3249,0.3255,0.3027,0.3007,0.3174,0.3164,0.3259,0.3258,0.3258,0.3257,0,0.2448,0.2489,0.251,0.2575,0.2591,0.2611,0.2681,0.2718,0.2811,0.2878,0.291,0.3041,0.3147,0.3218,0.3305,0.3304,0.3358,0.3368,0.3105,0.308,0.3305,0.3297,0.3402,0.3403,0.3404,0.3405,0.3406,0,0.2419,0.2428,0.2477,0.2486,0.2508,0.2547,0.2577,0.2676,0.2725,0.2877,0.2914,0.3055,0.3141,0.3294,0.3326,0.3392,0.341,0.3189,0.3092,0.333,0.3325,0.3315,0.3305,0.283,0.2826,0.2822,0.2819,0,0.2365,0.2382,0.24,0.2417,0.2439,0.246,0.2522,0.2549,0.2676,0.2751,0.2873,0.2962,0.3136,0.3117,0.3229,0.3218,0.3162,0.3126,0.3438,0.285,0.2802,0.2794,0.28,0.2789,0.2792,0.2794,0.2796,0.2797,0.2319,0.2311,0.2335,0.234,0.2363,0.2371,0.2358,0.2442,0.2498,0.2583,0.2741,0.2796,0.2894,0.2952,0.2907,0.2879,0.3091,0.2942,0.2946,0.2956,0.2892,0.2851,0.2835,0.2838,0.284,0.2843,0.2845,0,0.2253,0.2257,0.2262,0.2257,0.2237,0.2282,0.2315,0.2286,0.231,0.2431,0.2513,0.2394,0.243,0.2514,0.2451,0.2509,0.2414,0.2392,0.2227,0.2264,0.2294,0.2189,0.1949,0.1945,0.1942,0.1939,0,0,0.2222,0.2193,0.2189,0.2126,0.2124,0.2059,0.205,0.2039,0.2088,0.2084,0.2104,0.2295,0.245,0.2143,0.2151,0.2032,0.2107,0.1953,0.2684,0.2526,0.2551,0.2646,0.2532,0,0,0,0,0]},{"header":{"parameterUnit":"m.s-1","parameterCategory":2,"la1":30.2991,"la2":30.254,"lo1":-89.0895,"lo2":-89.0444,"dy":0.0017,"dx":0.0017,"nx":28,"ny":28,"refTime":"2024-12-26T03:00:00:Z","depth":"2","parameterNumber":3,"parameterNumberName":"V-component_of_CURRENTS"},"data":[0,0,0,0,0,0,0,0,0,0,0,0,0,0,0,0,0,0,0,0,0,0,0,0,0,0,0,0,0,0,0,0,0,0,0,0,0,0,0,0,0,0,0,0,0,0,0,0,0,0,0,0,0,0,0,0,0,0,-0.011,-0.011,0,-0.0189,-0.0191,-0.0192,-0.0242,-0.0242,-0.0242,-0.0243,-0.0351,-0.0354,-0.0357,0,0,0,0,0,0,0,0,0,0,0,0,0,-0.0051,-0.0051,-0.011,-0.011,-0.0111,-0.0189,-0.0191,-0.0192,-0.0242,-0.0242,-0.0243,-0.0243,-0.035,-0.0354,-0.0357,0,0,0,0,0,0,0,0,0,0,0,0,0,-0.0099,-0.0051,-0.0109,-0.0145,-0.0149,-0.0189,-0.0191,-0.0192,-0.0242,-0.0242,-0.0243,-0.0243,-0.0349,-0.0353,-0.0357,-0.0378,0,0,-0.037,-0.0372,0,0,0,0,0,0,0,0,-0.0096,-0.0101,-0.0139,-0.0142,-0.0147,-0.0205,-0.021,-0.0255,-0.0242,-0.0208,-0.0243,-0.0243,-0.0304,-0.0312,-0.0328,-0.0383,-0.0388,-0.037,-0.0373,-0.0375,-0.0376,0,0,0,0,0,0,0,-0.0093,-0.0098,-0.0143,-0.014,-0.0144,-0.0174,-0.018,-0.0219,-0.0255,-0.0211,-0.0215,-0.0221,-0.0307,-0.0324,-0.0331,-0.0389,-0.037,-0.0374,-0.0376,-0.0378,-0.046,-0.046,0,0,0,0,0,0,-0.0077,-0.0095,-0.014,-0.0145,-0.012,-0.0174,-0.0182,-0.0187,-0.0254,-0.0264,-0.0221,-0.0223,-0.0317,-0.0326,-0.0335,-0.0348,-0.0375,-0.0378,-0.0381,-0.0461,-0.046,-0.046,0,0,0,0,0,0,-0.0075,-0.008,-0.0137,-0.0121,-0.013,-0.0174,-0.018,-0.0189,-0.0204,-0.0261,-0.0272,-0.0228,-0.0317,-0.0329,-0.0361,-0.0353,-0.038,-0.0384,-0.0461,-0.0461,-0.046,-0.0384,0,0,0,0,0,0,-0.0073,-0.0079,-0.0077,-0.012,-0.013,-0.0153,-0.018,-0.019,-0.0207,-0.0211,-0.0271,-0.0281,-0.0318,-0.0354,-0.0365,-0.0359,-0.0387,-0.0461,-0.0461,-0.046,-0.0387,-0.0381,-0.0376,0,0,0,0,0,-0.0071,-0.0065,-0.0077,-0.0082,-0.0126,-0.0152,-0.0161,-0.0195,-0.0207,-0.021,-0.0248,-0.0279,-0.0358,-0.0357,-0.037,-0.0365,-0.0462,-0.0461,-0.046,-0.039,-0.0383,-0.0377,0,0,0,0,0,0,-0.0037,-0.007,-0.0084,-0.0088,-0.0114,-0.016,-0.0165,-0.0189,-0.0221,-0.0223,-0.0277,-0.029,-0.0316,-0.0351,-0.0348,-0.0388,-0.0415,-0.0417,-0.0357,-0.0351,-0.0345,-0.0324,-0.0391,0,0,0,0,0,-0.0027,-0.0031,-0.0069,-0.007,-0.008,-0.0121,-0.0136,-0.0158,-0.0192,-0.0207,-0.0247,-0.0288,-0.0324,-0.0344,-0.0381,-0.0403,-0.0433,-0.0409,-0.0403,-0.0398,-0.039,-0.0427,-0.0424,-0.0458,-0.0458,-0.0458,0,0,-0.0014,-0.0032,-0.0035,-0.0063,-0.0086,-0.0092,-0.0131,-0.0146,-0.0151,-0.0214,-0.023,-0.0272,-0.0325,-0.0348,-0.0363,-0.0376,-0.0403,-0.0398,-0.0393,-0.0387,-0.0426,-0.0423,-0.042,-0.0458,-0.0458,-0.0458,0,0,0.0014,-0.0005,0.0002,-0.0016,-0.0043,-0.0067,-0.0067,-0.0108,-0.0125,-0.0148,-0.0191,-0.0223,-0.028,-0.0313,-0.0338,-0.0326,-0.0373,-0.0342,-0.0298,-0.0334,-0.0332,-0.033,-0.0354,-0.0355,-0.0339,-0.0339,-0.0339,0,0.0033,0.0034,-0.0,0.0003,-0.0003,-0.005,-0.004,-0.0066,-0.011,-0.0119,-0.0141,-0.0215,-0.0261,-0.0288,-0.0285,-0.0313,-0.0339,-0.0316,-0.0326,-0.0325,-0.0324,-0.035,-0.0352,-0.0335,-0.0335,-0.0336,-0.0336,0,0.0062,0.0065,0.0069,0.0059,0.0048,0.0048,0.0014,0.0003,-0.0023,-0.0052,-0.0083,-0.0145,-0.0187,-0.021,-0.0246,-0.0262,-0.0283,-0.0313,-0.0338,-0.0316,-0.0345,-0.0348,-0.033,-0.0331,-0.0332,-0.0333,0,0,0.0104,0.0094,0.0096,0.0107,0.008,0.0079,0.0075,0.0059,0.0064,0.0012,0.0011,-0.0057,-0.0092,-0.0123,-0.0175,-0.0209,-0.0228,-0.0253,-0.0256,-0.0268,-0.0299,-0.0313,-0.0318,-0.0261,-0.0261,-0.0262,-0.0318,0,0.014,0.0165,0.0147,0.0176,0.0187,0.0154,0.0158,0.0137,0.0109,0.0095,0.0028,0.0003,-0.0059,-0.0076,-0.012,-0.02,-0.0234,-0.0209,-0.0327,-0.033,-0.0338,-0.0321,-0.0302,-0.0351,-0.0322,-0.0323,-0.0323,0,0.0178,0.019,0.0224,0.0242,0.0246,0.0253,0.026,0.0257,0.022,0.0197,0.0154,0.0102,0.0046,-0.0011,-0.013,-0.0111,-0.0194,-0.026,-0.0265,-0.0305,-0.0349,-0.0372,-0.0359,-0.0329,-0.0329,-0.0328,-0.0328,0,0.0229,0.025,0.0283,0.0285,0.0292,0.0305,0.0308,0.0287,0.0301,0.0261,0.0265,0.018,0.0149,0.0033,-0.0101,-0.0116,-0.0231,-0.0273,-0.0362,-0.0364,-0.0384,-0.0387,-0.0354,-0.0354,-0.0354,-0.0354,-0.0354,0,0.0276,0.0304,0.031,0.0327,0.0375,0.0359,0.0399,0.0388,0.0384,0.0412,0.0323,0.0329,0.0158,0.0073,-0.0066,-0.0214,-0.0207,-0.0346,-0.0379,-0.0357,-0.0357,-0.0371,-0.0372,-0.0356,-0.0355,-0.0355,-0.0355,0,0.0322,0.0325,0.0368,0.0388,0.0399,0.0432,0.0465,0.0496,0.048,0.0514,0.0511,0.0442,0.0333,0.0162,-0.002,-0.0156,-0.0306,-0.0363,-0.0319,-0.0345,-0.0424,-0.0421,-0.0468,-0.0469,-0.047,-0.047,-0.0471,0,0.0347,0.0373,0.0415,0.0448,0.0458,0.0498,0.0534,0.0539,0.0579,0.0591,0.0623,0.054,0.0499,0.0231,-0.0022,-0.0259,-0.0296,-0.0404,-0.0437,-0.0408,-0.0436,-0.0431,-0.0427,-0.0434,-0.0434,-0.0434,-0.0434,0,0.0398,0.041,0.0444,0.0507,0.0553,0.0609,0.0661,0.071,0.0728,0.0765,0.0804,0.0778,0.0535,0.0307,-0.0021,-0.0192,-0.0367,-0.0415,-0.04,-0.0404,-0.038,-0.0405,-0.0402,-0.0435,-0.0435,-0.0435,-0.0435,-0.0435,0.0435,0.0466,0.0509,0.0571,0.0631,0.0709,0.076,0.0826,0.0905,0.0956,0.0936,0.0897,0.0644,0.0232,-0.0052,-0.0368,-0.0363,-0.048,-0.0478,-0.0476,-0.0458,-0.0437,-0.0499,-0.0499,-0.0499,-0.0499,-0.0499,0,0.0475,0.051,0.0571,0.0644,0.0711,0.0739,0.0842,0.0884,0.098,0.1034,0.1057,0.0822,0.0586,0.0288,-0.017,-0.0438,-0.0468,-0.0529,-0.0499,-0.0496,-0.0494,-0.0476,-0.0522,-0.0523,-0.0524,-0.0524,0,0,0.0498,0.0552,0.0578,0.069,0.075,0.0834,0.0894,0.0958,0.1009,0.1047,0.104,0.1015,0.0677,0.0352,-0.0009,-0.0267,-0.033,-0.033,-0.0286,-0.0207,-0.0201,-0.0442,-0.0409,0,0,0,0,0]}],[{"header":{"parameterUnit":"m.s-1","parameterCategory":2,"la1":30.2991,"la2":30.254,"lo1":-89.0895,"lo2":-89.0444,"dy":0.0017,"dx":0.0017,"nx":28,"ny":28,"refTime":"2024-12-26T03:00:00:Z","depth":"4","parameterNumber":2,"parameterNumberName":"U-component_of_CURRENTS"},"data":[0,0,0,0,0,0,0,0,0,0,0,0,0,0,0,0,0,0,0,0,0,0,0,0,0,0,0,0,0,0,0,0,0,0,0,0,0,0,0,0,0,0,0,0,0,0,0,0,0,0,0,0,0,0,0,0,0,0,0.1713,0.1714,0,0.1768,0.1769,0.1769,0.182,0.182,0.1821,0.1822,0.1888,0.1889,0.189,0,0,0,0,0,0,0,0,0,0,0,0,0,0.1635,0.1636,0.1713,0.1714,0.1715,0.1768,0.1769,0.1769,0.1819,0.182,0.1821,0.1822,0.1888,0.1889,0.189,0,0,0,0,0,0,0,0,0,0,0,0,0,0.1676,0.1636,0.1713,0.1747,0.1751,0.1768,0.1769,0.177,0.1819,0.182,0.1821,0.1823,0.1887,0.1889,0.1891,0.1878,0,0,0.1896,0.1896,0,0,0,0,0,0,0,0,0.1673,0.1678,0.1741,0.1745,0.1749,0.1789,0.1766,0.1807,0.1819,0.1792,0.1822,0.1823,0.1856,0.1861,0.1866,0.1882,0.1884,0.1896,0.1897,0.1897,0.1898,0,0,0,0,0,0,0,0.167,0.1676,0.1733,0.1742,0.1747,0.1754,0.1761,0.1773,0.1816,0.1794,0.1798,0.1806,0.1858,0.1865,0.1868,0.1885,0.1896,0.1897,0.1898,0.1899,0.2009,0.2011,0,0,0,0,0,0,0.1666,0.1674,0.1732,0.1735,0.1715,0.1755,0.1763,0.1774,0.1816,0.1824,0.1805,0.1809,0.1861,0.1866,0.1871,0.1964,0.1897,0.1899,0.19,0.2007,0.2009,0.2011,0,0,0,0,0,0,0.1664,0.1671,0.1729,0.1706,0.1715,0.1755,0.1768,0.1775,0.1818,0.1825,0.1833,0.1846,0.1862,0.1869,0.1919,0.1963,0.19,0.1901,0.2004,0.2008,0.201,0.2082,0,0,0,0,0,0,0.1662,0.167,0.1694,0.1706,0.1716,0.1765,0.1767,0.1775,0.182,0.1825,0.1861,0.1866,0.1864,0.1917,0.1921,0.1964,0.1902,0.2002,0.2006,0.2009,0.2077,0.2087,0.2095,0,0,0,0,0,0.1659,0.1681,0.1695,0.1703,0.1742,0.1767,0.1773,0.1803,0.1821,0.1846,0.1875,0.1867,0.1943,0.1919,0.1924,0.1968,0.2,0.2005,0.2009,0.2073,0.2085,0.2095,0,0,0,0,0,0,0.1661,0.1688,0.1704,0.1735,0.1762,0.1776,0.1807,0.1824,0.1865,0.1884,0.1888,0.1895,0.1956,0.1952,0.1926,0.2012,0.1972,0.1977,0.2019,0.203,0.2039,0.2033,0.1904,0,0,0,0,0,0.1671,0.1699,0.1721,0.1751,0.1768,0.1795,0.1816,0.1838,0.1866,0.1888,0.1913,0.1942,0.197,0.1994,0.2014,0.2057,0.2055,0.2091,0.21,0.2107,0.2106,0.2143,0.2155,0.2026,0.2026,0.2026,0,0,0.168,0.1701,0.1718,0.1755,0.1781,0.1809,0.1812,0.1856,0.1889,0.1887,0.1954,0.1976,0.1989,0.2042,0.2069,0.205,0.2147,0.2113,0.212,0.2114,0.2148,0.2161,0.2172,0.2029,0.2028,0.2028,0,0,0.1698,0.1734,0.1759,0.1786,0.1832,0.1846,0.1867,0.1906,0.1939,0.1993,0.2006,0.2055,0.2097,0.2117,0.2129,0.22,0.2193,0.2218,0.2261,0.2298,0.2308,0.2317,0.2342,0.2353,0.2224,0.2224,0.2224,0,0.1712,0.1743,0.1772,0.1803,0.1831,0.1867,0.1899,0.1933,0.1987,0.2018,0.2029,0.2112,0.2129,0.2186,0.2217,0.2221,0.2237,0.2218,0.2309,0.2318,0.2326,0.2349,0.236,0.2228,0.2228,0.2227,0.2227,0,0.1735,0.1777,0.1798,0.1847,0.1881,0.1919,0.1961,0.2012,0.2057,0.2087,0.2168,0.2196,0.2243,0.2265,0.2265,0.2339,0.2331,0.2314,0.2278,0.2343,0.2363,0.2374,0.2234,0.2232,0.2231,0.223,0,0,0.1719,0.1797,0.1809,0.1842,0.191,0.1936,0.2003,0.2062,0.2113,0.2177,0.224,0.2302,0.2329,0.2344,0.2361,0.2397,0.2477,0.2391,0.2391,0.2409,0.2561,0.242,0.2416,0.2484,0.2486,0.2487,0.2556,0,0.1731,0.179,0.1829,0.1894,0.1927,0.1986,0.2042,0.2107,0.2167,0.2239,0.229,0.2357,0.2355,0.2396,0.2434,0.2468,0.2506,0.2459,0.2499,0.25,0.2361,0.2424,0.2494,0.2563,0.2565,0.2567,0.2568,0,0.1731,0.1775,0.1836,0.1921,0.1943,0.1993,0.2089,0.2145,0.2246,0.2297,0.2371,0.2412,0.2492,0.2475,0.2562,0.2539,0.2559,0.2574,0.2577,0.2421,0.2376,0.2482,0.2586,0.2585,0.2583,0.2582,0.2581,0,0.1687,0.1777,0.1827,0.1857,0.1956,0.2008,0.2071,0.2171,0.2224,0.2344,0.2395,0.2484,0.2544,0.2587,0.2629,0.2611,0.271,0.268,0.2569,0.2559,0.2634,0.2623,0.2735,0.2735,0.2735,0.2735,0.2735,0,0.1661,0.1707,0.1821,0.1846,0.1916,0.2001,0.2081,0.2158,0.2268,0.2327,0.2428,0.2476,0.2579,0.2641,0.2661,0.2646,0.2738,0.2582,0.2568,0.2664,0.2656,0.2641,0.263,0.2737,0.2737,0.2736,0.2736,0,0.1594,0.1669,0.1733,0.1853,0.1894,0.1949,0.2075,0.2129,0.2249,0.233,0.2374,0.2501,0.2579,0.2655,0.2734,0.2669,0.2679,0.2651,0.2761,0.2752,0.2496,0.2488,0.2521,0.2516,0.2513,0.2509,0.2507,0,0.1559,0.1589,0.1719,0.176,0.182,0.1912,0.197,0.2103,0.2155,0.2315,0.2341,0.2469,0.2536,0.2526,0.2624,0.2655,0.2628,0.2611,0.2534,0.2491,0.2476,0.2473,0.247,0.2501,0.25,0.2499,0.2498,0,0.1492,0.1556,0.1609,0.1691,0.1763,0.182,0.1919,0.1937,0.2083,0.221,0.2246,0.2288,0.2372,0.2428,0.2479,0.2493,0.2607,0.2571,0.2578,0.2505,0.2467,0.2455,0.2456,0.2485,0.2487,0.2488,0.2489,0,0.1447,0.1466,0.1547,0.1602,0.1685,0.1709,0.1767,0.1826,0.1887,0.2061,0.207,0.2208,0.2337,0.2346,0.2391,0.24,0.2361,0.2275,0.2296,0.2312,0.2214,0.2133,0.2041,0,0,0,0,0,0.1392,0.1401,0.1451,0.1501,0.1578,0.1622,0.1725,0.1786,0.1919,0.1893,0.1973,0.2038,0.2096,0.2174,0.2144,0.232,0.2383,0.2277,0.2297,0.2413,0.2428,0.2333,0,0,0,0,0,0,0.1356,0.1401,0.1412,0.1405,0.1421,0.1484,0.154,0.1631,0.1621,0.1765,0.1807,0.1923,0.2015,0.2094,0.2106,0.2133,0.2106,0.2373,0.2368,0.2404,0.2418,0.243,0.2338,0,0,0,0,0]},{"header":{"parameterUnit":"m.s-1","parameterCategory":2,"la1":30.2991,"la2":30.254,"lo1":-89.0895,"lo2":-89.0444,"dy":0.0017,"dx":0.0017,"nx":28,"ny":28,"refTime":"2024-12-26T03:00:00:Z","depth":"4","parameterNumber":3,"parameterNumberName":"V-component_of_CURRENTS"},"data":[0,0,0,0,0,0,0,0,0,0,0,0,0,0,0,0,0,0,0,0,0,0,0,0,0,0,0,0,0,0,0,0,0,0,0,0,0,0,0,0,0,0,0,0,0,0,0,0,0,0,0,0,0,0,0,0,0,0,-0.0081,-0.0081,0,-0.0138,-0.0139,-0.014,-0.0179,-0.018,-0.018,-0.018,-0.027,-0.0272,-0.0275,0,0,0,0,0,0,0,0,0,0,0,0,0,-0.0041,-0.0041,-0.0081,-0.0081,-0.0082,-0.0138,-0.0139,-0.014,-0.0179,-0.018,-0.018,-0.018,-0.027,-0.0272,-0.0275,0,0,0,0,0,0,0,0,0,0,0,0,0,-0.0075,-0.0041,-0.0081,-0.0108,-0.0111,-0.0138,-0.0139,-0.014,-0.0179,-0.018,-0.018,-0.018,-0.0269,-0.0272,-0.0275,-0.029,0,0,-0.0285,-0.0287,0,0,0,0,0,0,0,0,-0.0073,-0.0076,-0.0103,-0.0106,-0.0109,-0.0151,-0.0158,-0.0192,-0.0179,-0.0154,-0.018,-0.018,-0.0233,-0.0239,-0.025,-0.0294,-0.0298,-0.0286,-0.0288,-0.0289,-0.029,0,0,0,0,0,0,0,-0.007,-0.0074,-0.0105,-0.0104,-0.0107,-0.0129,-0.0134,-0.0165,-0.0192,-0.0157,-0.0159,-0.0164,-0.0235,-0.0247,-0.0253,-0.0299,-0.0286,-0.0289,-0.0291,-0.0292,-0.0364,-0.0364,0,0,0,0,0,0,-0.0059,-0.0072,-0.0103,-0.0106,-0.009,-0.0129,-0.0135,-0.0138,-0.0192,-0.0199,-0.0164,-0.0166,-0.0241,-0.0249,-0.0256,-0.0273,-0.0289,-0.0292,-0.0294,-0.0364,-0.0364,-0.0364,0,0,0,0,0,0,-0.0058,-0.0061,-0.0101,-0.009,-0.0096,-0.0129,-0.0133,-0.0139,-0.0153,-0.0196,-0.0205,-0.0171,-0.0241,-0.0251,-0.028,-0.0277,-0.0294,-0.0297,-0.0365,-0.0364,-0.0364,-0.0309,0,0,0,0,0,0,-0.0057,-0.006,-0.006,-0.0089,-0.0096,-0.0113,-0.0133,-0.014,-0.0155,-0.0158,-0.0206,-0.0214,-0.0242,-0.0274,-0.0283,-0.0282,-0.0299,-0.0365,-0.0365,-0.0364,-0.0311,-0.0307,-0.0304,0,0,0,0,0,-0.0055,-0.0051,-0.0059,-0.0063,-0.0094,-0.0113,-0.0119,-0.0144,-0.0155,-0.0159,-0.0189,-0.0213,-0.028,-0.0277,-0.0287,-0.0287,-0.0365,-0.0365,-0.0364,-0.0313,-0.0308,-0.0304,0,0,0,0,0,0,-0.0033,-0.0055,-0.0065,-0.0068,-0.0087,-0.0119,-0.0124,-0.0142,-0.0168,-0.0172,-0.0213,-0.0223,-0.0247,-0.0275,-0.0271,-0.0308,-0.0326,-0.0328,-0.0283,-0.0279,-0.0276,-0.0258,-0.0302,0,0,0,0,0,-0.0027,-0.003,-0.0055,-0.0057,-0.0064,-0.0093,-0.0105,-0.0121,-0.0148,-0.016,-0.0192,-0.0226,-0.0255,-0.0272,-0.0302,-0.0323,-0.0347,-0.0329,-0.0326,-0.0322,-0.0315,-0.0349,-0.0347,-0.0364,-0.0364,-0.0364,0,0,-0.0019,-0.0031,-0.0033,-0.0052,-0.0069,-0.0073,-0.0101,-0.0114,-0.0118,-0.0166,-0.0181,-0.0215,-0.0257,-0.0278,-0.0292,-0.0301,-0.033,-0.0322,-0.0319,-0.0313,-0.0349,-0.0347,-0.0345,-0.0364,-0.0364,-0.0364,0,0,-0.0001,-0.0014,-0.001,-0.0022,-0.0041,-0.0058,-0.0059,-0.0089,-0.0102,-0.0121,-0.0155,-0.0184,-0.023,-0.0256,-0.0276,-0.0272,-0.0309,-0.0285,-0.0254,-0.0287,-0.0285,-0.0284,-0.0308,-0.031,-0.0284,-0.0284,-0.0283,0,0.001,0.0012,-0.0012,-0.001,-0.0013,-0.0047,-0.004,-0.0059,-0.0094,-0.0101,-0.0118,-0.018,-0.0217,-0.0242,-0.024,-0.0263,-0.0286,-0.0265,-0.0281,-0.0281,-0.0281,-0.0306,-0.0308,-0.0281,-0.0281,-0.0281,-0.0282,0,0.0029,0.0032,0.0034,0.0029,0.0021,0.0021,-0.0003,-0.0013,-0.0033,-0.0054,-0.0082,-0.0132,-0.0166,-0.0186,-0.0213,-0.0231,-0.0248,-0.0271,-0.0288,-0.0275,-0.0303,-0.0307,-0.0277,-0.0278,-0.0279,-0.0279,0,0,0.0054,0.005,0.0051,0.0061,0.0043,0.0043,0.004,0.0028,0.0031,-0.0011,-0.0013,-0.0069,-0.0097,-0.0122,-0.0163,-0.0194,-0.0216,-0.0228,-0.0231,-0.0244,-0.0284,-0.0278,-0.0282,-0.0243,-0.0244,-0.0244,-0.0301,0,0.0078,0.0096,0.0086,0.0108,0.0117,0.0095,0.0099,0.0084,0.0063,0.005,-0.0004,-0.0025,-0.0073,-0.0087,-0.0126,-0.0192,-0.0225,-0.0199,-0.03,-0.0303,-0.0294,-0.0285,-0.0245,-0.0304,-0.0305,-0.0305,-0.0306,0,0.0101,0.0111,0.0137,0.0156,0.0159,0.0167,0.0174,0.0173,0.0144,0.0126,0.009,0.0049,0.0001,-0.0043,-0.0146,-0.0127,-0.0198,-0.0253,-0.0257,-0.0272,-0.0304,-0.0322,-0.0313,-0.0312,-0.0312,-0.0311,-0.0311,0,0.0131,0.0151,0.0177,0.018,0.019,0.0203,0.0209,0.0195,0.0206,0.0174,0.0178,0.0106,0.0079,-0.0018,-0.0129,-0.0139,-0.0243,-0.0273,-0.0335,-0.0335,-0.0348,-0.0349,-0.0346,-0.0346,-0.0346,-0.0346,-0.0346,0,0.0159,0.0181,0.0195,0.0208,0.0248,0.0241,0.0274,0.0268,0.0268,0.0288,0.0221,0.0219,0.0083,0.0009,-0.0105,-0.0223,-0.0227,-0.0323,-0.0348,-0.0324,-0.0321,-0.0351,-0.0351,-0.0348,-0.0347,-0.0347,-0.0347,0,0.0182,0.019,0.0225,0.0249,0.0262,0.0289,0.0326,0.0349,0.0342,0.0367,0.0365,0.0305,0.0209,0.0073,-0.0082,-0.0179,-0.0301,-0.0345,-0.0294,-0.0317,-0.0379,-0.0375,-0.0417,-0.0417,-0.0417,-0.0417,-0.0417,0,0.0193,0.0213,0.0257,0.0285,0.0298,0.0336,0.0367,0.0381,0.041,0.0421,0.044,0.037,0.0308,0.011,-0.0051,-0.0258,-0.0297,-0.0363,-0.0386,-0.0365,-0.0386,-0.0382,-0.0378,-0.0418,-0.0418,-0.0418,-0.0418,0,0.0216,0.0232,0.026,0.0317,0.036,0.0407,0.0453,0.0483,0.0505,0.0509,0.0508,0.0409,0.0302,0.013,-0.0029,-0.0185,-0.0322,-0.0367,-0.0368,-0.0389,-0.0367,-0.0386,-0.0382,-0.0418,-0.0418,-0.0418,-0.0418,0,0.0233,0.0254,0.0294,0.0345,0.0403,0.0459,0.0481,0.0519,0.0549,0.0566,0.0565,0.045,0.0382,0.0168,0.0021,-0.0127,-0.0178,-0.0242,-0.0251,-0.0252,-0.0195,-0.0142,-0.0139,0,0,0,0,0,0.0245,0.0268,0.0318,0.0373,0.0434,0.0465,0.0532,0.055,0.0579,0.0593,0.0582,0.0486,0.0284,0.0198,0.0052,-0.001,-0.0222,-0.019,-0.0304,-0.0422,-0.0421,-0.0383,0,0,0,0,0,0,0.0252,0.0294,0.0315,0.0388,0.0426,0.0493,0.0535,0.0558,0.0564,0.0577,0.048,0.0436,0.0242,0.0369,0.0046,0.0001,-0.0096,-0.0281,-0.0285,-0.0423,-0.0422,-0.0421,-0.0382,0,0,0,0,0]}]]